Content
SEND FEEDBACK

Daily
Averages
Monthly
Summary
United States of America

AUBURN, CALIFORNIA


Home > North America > United States > California
Elevation: 1279 feet     Latitude: 38 53N     Longitude: 121 04W

WEATHER
 
SELECT A DAY
Number of Records: 296,714;   Date Range: 8/19/02 - 9/30/14
 
SHARE

PRINT THIS DATA

[ ← Previous Day ]
WEATHER ALMANAC - FEBRUARY 13, 2013
[ Next Day → ]
[ °C ]   °F
Weather ElementAverageHighLow
Temperature47.1 °F57.2 °F (12:35 pm)37.4 °F (5:35 am)
Dewpoint36.4 °F39.2 °F (1:15 pm)32 °F (6:35 am)
Humidity68.3 %87 % (3:35 am)48 % (12:35 pm)
Barometer30.26 in30.31 in (12:35 am)30.21 in (5:15 pm)
Wind Speed3 mph8.1 mph (8:35 am)
Weather ElementAverage
Visibility9 mi
Wind DirectionE (94.6 °)

Weather ElementTotal
Precipitation---
Heating Degree Days17.7 (Base 65)
Averaged from 65 records on February 13, 2013
WEATHER CONDITIONS BREAKOUT
WIND DIRECTION BREAKOUT
WEATHER BY HOUR - FEBRUARY 13, 2013
[ °C ]   °F
Local TimeTemperatureDewpointHumidityBarometerVisibilityWind DirectionWind SpeedGust SpeedPrecipitationEventsConditions
12:35 AM42.8 °F35.6 °F76 %30.31 in10.0 miESE (110°)5.8 mphClear
12:55 AM42.8 °F35.6 °F76 %30.31 in10.0 miEast (100°)5.8 mphClear
1:15 AM41.0 °F35.6 °F81 %30.31 in10.0 miCalmClear
1:35 AM41.0 °F35.6 °F81 %30.31 in10.0 miESE (110°)6.9 mphClear
1:55 AM42.8 °F35.6 °F76 %30.31 in10.0 miCalmClear
2:15 AM41.0 °F35.6 °F81 %30.31 in10.0 miESE (110°)6.9 mphClear
2:35 AM42.8 °F35.6 °F76 %30.31 in10.0 miEast (100°)6.9 mphClear
2:55 AM41.0 °F35.6 °F81 %30.30 in10.0 miEast (100°)6.9 mphClear
3:15 AM41.0 °F35.6 °F81 %30.30 in10.0 miEast (100°)6.9 mphClear
3:35 AM39.2 °F35.6 °F87 %30.30 in10.0 miEast (100°)6.9 mphClear
4:15 AM39.2 °F33.8 °F81 %30.29 in10.0 miEast (100°)5.8 mphClear
4:35 AM39.2 °F33.8 °F81 %30.29 in10.0 miEast (100°)6.9 mphClear
5:15 AM39.2 °F33.8 °F81 %30.30 in10.0 miEast (100°)4.6 mphClear
5:35 AM37.4 °F33.8 °F87 %30.29 in10.0 miEast (100°)3.5 mphClear
5:55 AM37.4 °F33.8 °F87 %30.29 in10.0 miCalmClear
6:35 AM37.4 °F32.0 °F81 %30.29 in10.0 miCalmClear
6:55 AM39.2 °F33.8 °F81 %30.30 in10.0 miEast (100°)4.6 mphClear
7:15 AM37.4 °F33.8 °F87 %30.30 in10.0 miESE (110°)5.8 mphClear
7:35 AM39.2 °F33.8 °F81 %30.30 in10.0 miEast (100°)4.6 mphClear
7:55 AM41.0 °F33.8 °F76 %30.30 in10.0 miESE (110°)6.9 mphClear
8:15 AM44.6 °F35.6 °F71 %30.30 in10.0 miSE (130°)3.5 mphClear
8:35 AM44.6 °F35.6 °F71 %30.30 in10.0 miEast (100°)8.1 mphClear
9:15 AM50.0 °F35.6 °F58 %30.30 in10.0 miCalmClear
9:35 AM51.8 °F37.4 °F58 %30.31 in10.0 miCalmClear
9:55 AM51.8 °F35.6 °F54 %30.31 in9.0 miCalmClear
10:15 AM53.6 °F35.6 °F51 %30.31 in8.0 miWNW (290°)4.6 mphClear
10:35 AM53.6 °F35.6 °F51 %30.31 in8.0 miCalmClear
10:55 AM53.6 °F37.4 °F54 %30.31 in9.0 miCalmClear
11:15 AM53.6 °F37.4 °F54 %30.31 in9.0 miCalmClear
11:35 AM55.4 °F37.4 °F51 %30.30 in9.0 miCalmClear
11:55 AM55.4 °F37.4 °F51 %30.30 in9.0 miWest (280°)3.5 mphClear
12:15 PM55.4 °F37.4 °F51 %30.28 in10.0 miSSW (200°)6.9 mphClear
12:35 PM57.2 °F37.4 °F48 %30.27 in9.0 miWest (260°)5.8 mphClear
12:55 PM57.2 °F37.4 °F48 %30.27 in9.0 miWest (260°)4.6 mphClear
1:15 PM57.2 °F39.2 °F51 %30.26 in9.0 miSW (220°)6.9 mphClear
1:35 PM57.2 °F39.2 °F51 %30.26 in8.0 miWSW (240°)5.8 mphClear
1:55 PM57.2 °F39.2 °F51 %30.25 in9.0 miWSW (240°)3.5 mphClear
2:15 PM57.2 °F39.2 °F51 %30.24 in9.0 miSW (230°)4.6 mphClear
2:35 PM57.2 °F39.2 °F51 %30.23 in8.0 miWest (270°)3.5 mphClear
2:55 PM57.2 °F39.2 °F51 %30.23 in8.0 miSW (220°)3.5 mphClear
3:15 PM57.2 °F39.2 °F51 %30.23 in8.0 miSW (230°)5.8 mphClear
3:35 PM57.2 °F39.2 °F51 %30.23 in9.0 miSW (230°)4.6 mphClear
3:55 PM57.2 °F39.2 °F51 %30.22 in9.0 miWSW (240°)4.6 mphClear
4:15 PM57.2 °F39.2 °F51 %30.22 in8.0 miSouth (190°)4.6 mphClear
4:35 PM57.2 °F39.2 °F51 %30.22 in8.0 miWSW (250°)4.6 mphClear
5:15 PM55.4 °F37.4 °F51 %30.21 in8.0 miCalmClear
5:35 PM55.4 °F37.4 °F51 %30.21 in8.0 miSW (230°)4.6 mphClear
5:55 PM53.6 °F37.4 °F54 %30.21 in8.0 miSouth (190°)3.5 mphClear
6:15 PM53.6 °F37.4 °F54 %30.21 in9.0 miCalmClear
6:35 PM46.4 °F37.4 °F71 %30.22 in9.0 miCalmClear
6:55 PM44.6 °F37.4 °F76 %30.22 in10.0 miCalmClear
7:15 PM42.8 °F37.4 °F81 %30.22 in9.0 miCalmClear
7:35 PM42.8 °F35.6 °F76 %30.22 in8.0 miCalmClear
7:55 PM42.8 °F35.6 °F76 %30.23 in8.0 miCalmClear
8:15 PM41.0 °F35.6 °F81 %30.22 in8.0 miCalmClear
8:35 PM42.8 °F37.4 °F81 %30.22 in8.0 miCalmClear
8:55 PM42.8 °F35.6 °F76 %30.22 in8.0 miCalmClear
9:15 PM42.8 °F35.6 °F76 %30.22 in8.0 miCalmClear
9:35 PM42.8 °F35.6 °F76 %30.22 in8.0 miCalmClear
10:15 PM41.0 °F35.6 °F81 %30.22 in8.0 miCalmClear
10:35 PM39.2 °F35.6 °F87 %30.23 in8.0 miCalmClear
10:55 PM39.2 °F35.6 °F87 %30.23 in8.0 miCalmClear
11:15 PM39.2 °F35.6 °F87 %30.23 in8.0 miCalmClear
11:35 PM41.0 °F35.6 °F81 %30.23 in8.0 miCalmClear
11:55 PM41.0 °F37.4 °F87 %30.22 in9.0 miCalmClear
Hourly data recorded from KAUN, located miles away from Auburn, California







STORIES FROM OUR PARTNERS